Location: ???
(32.3666°N, 35.0331°E)
Time: 03:01:41
(UTC+00:00)

Daily predictions for brighter satellites

Satellite Brightness Start Highest point End
(mag) Time Altitude Azimuth Time Altitude Azimuth Time Altitude Azimuth
Cosmos 2082 4.5 00:07:00 39° NW 00:07:00 39° NW 00:11:55 10° N
Cosmos 2154 Rocket 3.8 00:06:40 76° WSW 00:06:50 76° W 00:13:02 10° N
Cosmos 1295 Rocket 4.3 00:06:24 78° S 00:06:51 89° W 00:13:00 10° N
ATLAS 5 CENTAUR R/B 3.8 00:06:03 10° NW 00:08:39 25° WNW 00:08:39 25° WNW
IDEFIX/ARIANE 42P 2.5 00:07:08 10° NNE 00:12:19 75° ESE 00:12:25 75° ESE
Cosmos 1674 Rocket 4.0 00:09:26 10° N 00:13:22 59° NE 00:13:22 59° NE
Cosmos 1707 4.3 00:11:06 10° NNE 00:14:33 31° E 00:14:36 31° E
CBERS-1 3.9 00:09:26 10° NNE 00:14:35 83° ESE 00:14:35 83° ESE
Helios 1B rocket 4.5 00:11:52 10° NNW 00:13:32 20° NNW 00:13:32 20° NNW
Resurs 1-4 Rocket 3.8 00:16:00 10° NNW 00:19:08 20° WNW 00:19:08 20° WNW
ADEOS Rocket 3.1 00:21:22 48° WNW 00:21:22 48° WNW 00:25:59 10° NNW
ATLAS 2A CENTAUR R/B 4.0 00:18:58 46° WSW 00:21:52 68° S 01:00:50 10° E
Lacrosse 5 4.0 00:21:12 15° NW 00:22:19 16° NW 00:25:20 10° N
Chandra Rocket (1) 4.3 00:06:20 10° W 00:27:45 46° SW 00:33:48 10° SE
Cosmos 1190 Rocket 3.8 00:30:06 73° SSW 00:30:39 87° WNW 00:35:59 10° NNE
Meteor 1-21 4.2 00:26:35 10° N 00:32:24 86° E 00:34:31 42° S
MSX 3.7 00:27:39 10° NNE 00:33:24 86° ESE 00:34:56 51° S
Cosmos 1140 Rocket 3.5 00:34:49 59° W 00:35:08 61° WNW 00:40:20 10° N
Cosmos 1378 Rocket 3.5 00:30:50 10° N 00:34:51 74° NW 00:34:51 74° NW
NOSS 3-3 (A) 3.8 00:34:49 55° WSW 00:35:48 64° WNW 00:41:55 10° NNE
NOSS 3-3 (C) 3.7 00:34:57 56° WSW 00:35:53 65° WNW 00:42:00 10° NNE
Cosmos 1908 Rocket 3.6 00:36:30 67° NW 00:36:30 67° NW 00:40:28 10° N
Delta 142 4.2 00:36:57 57° SSW 00:37:36 60° S 00:42:42 10° ESE
Cosmos 1356 Rocket 4.2 00:44:00 37° NW 00:44:00 37° NW 00:47:00 10° N
Cosmos 1400 Rocket 4.4 00:42:26 23° SE 00:43:54 30° E 00:47:19 10° NNE
SL-8 Rocket 4.0 00:41:40 35° S 00:44:30 82° E 00:50:41 10° N
DELTA 2 DEB (DPAF) 4.1 00:45:04 60° W 00:45:04 60° W 00:49:12 10° NNW
Cosmos 1954 Rocket 4.1 00:43:24 46° S 00:44:59 77° ESE 00:50:19 10° NNE
Cosmos 2366 rocket 4.2 00:43:13 25° S 00:47:02 69° E 00:53:21 10° NNE
CZ-4B R/B 3.6 00:44:23 10° NNE 00:49:09 62° ESE 00:51:04 34° S
ERS-1 4.5 00:44:36 10° NNE 00:49:35 75° ESE 00:51:25 39° S
IKONOS-2 4.3 00:50:35 56° S 00:51:26 84° WSW 00:55:42 10° NNW
ARIANE 5 R/B 2.5 00:46:42 10° NNE 00:51:54 82° ESE 00:54:01 37° S
Cosmos 1674 3.6 00:55:16 10° N 00:58:58 47° E 01:01:46 16° SSE
Cosmos 2227 4.5 00:57:58 39° WSW 00:59:29 50° WNW 01:04:56 10° N
ADEOS II 3.7 00:57:02 10° NNW 01:00:37 19° WNW 01:01:02 19° WNW
Spot 4 Rocket 4.5 00:58:23 10° NNE 01:03:29 59° ESE 01:07:06 19° S
CZ-4C R/B 3.5 00:57:36 10° NNW 01:05:18 68° ENE 01:13:54 10° SE
CZ-4C R/B 3.3 01:06:03 50° SSW 01:06:47 60° W 01:10:54 10° NNW
SL-16 R/B 2.9 01:01:53 10° NW 01:06:44 31° WSW 01:06:44 31° WSW
IRS-1C 4.3 01:02:52 10° N 01:08:03 54° WNW 01:10:05 34° SW
Cosmos 2263 Rocket 3.1 01:07:40 28° W 01:09:19 34° WNW 01:14:26 10° N
Cosmos 2341 Rocket 4.3 01:07:02 33° SW 01:09:22 46° W 01:15:20 10° N
Okean 2 4.4 01:05:49 10° NNW 01:08:56 29° WNW 01:08:56 29° WNW
Cosmos 2218 Rocket 4.0 01:08:21 25° SSW 01:12:15 71° W 01:18:36 10° N
ASTRO E2 2.6 01:11:49 49° WSW 01:12:45 73° S 01:16:44 10° E
Cosmos 676 Rocket 4.2 01:11:07 34° SW 01:13:14 58° WNW 01:18:30 10° N
Okean 2 Rocket 4.2 01:10:17 10° SSE 01:14:32 44° E 01:18:50 10° NNE
Meteor 2-20 4.5 01:08:55 10° N 01:15:06 84° E 01:21:15 10° S
Delta 128 3.9 01:15:49 36° SW 01:17:14 50° S 01:22:03 10° ESE
CZ-2D R/B 3.3 01:13:45 10° N 01:17:44 68° WNW 01:19:24 34° SSW
Cosmos 1782 Rocket 4.0 01:17:35 35° WSW 01:18:38 42° W 01:22:46 10° N
Sich 1 Rocket 3.6 01:16:59 20° S 01:20:00 78° E 01:24:23 10° N
GEOS 3 Rocket 4.2 01:18:44 10° SE 01:24:00 64° NE 01:29:17 10° NNW
Cosmos 1727 Rocket 4.5 01:18:35 10° N 01:24:46 63° E 01:30:58 10° SSE
PAYLOAD A 4.1 01:21:02 10° N 01:26:28 82° WNW 01:30:41 16° SSW
CZ-2C R/B 2.8 01:27:07 10° NNE 01:30:50 74° ESE 01:33:51 15° S
Cosmos 1805 3.5 01:30:12 28° SW 01:31:52 49° W 01:35:40 10° N
Cosmos 1741 Rocket 4.2 01:27:40 13° S 01:32:22 70° ESE 01:37:37 10° NNE
Cosmos 2151 Rocket 4.2 01:29:07 10° S 01:33:23 56° E 01:37:42 10° NNE
Meteor 1-15 Rocket 4.3 01:27:58 12° S 01:33:24 82° W 01:39:20 10° N
USA 215 3.7 01:27:31 10° NNE 01:33:47 52° NW 01:38:35 18° WSW
ATLAS CENTAUR R/B 2.8 01:33:05 17° WNW 01:34:13 20° NW 01:37:04 10° N
ALOS 2.4 01:34:28 10° NNE 01:39:09 78° ESE 01:43:48 10° S
Milstar 3 3.1 01:35:02 20° SW 01:39:36 51° SSE 01:46:25 10° E
SL-08 R/B 3.5 01:37:00 10° S 01:41:46 52° W 01:46:36 10° NNW
KORONAS-FOTON 4.4 01:39:31 10° NNW 01:43:09 37° W 01:45:50 16° SSW
Cosmos 1844 3.9 01:38:08 10° S 01:43:38 69° ESE 01:49:09 10° NNE
Cosmos 1346 Rocket 4.2 01:42:01 10° N 01:45:42 40° E 01:49:22 10° SSE
Cosmos 1943 3.2 01:41:12 10° NNW 01:46:52 68° WSW 01:52:29 10° S
SL-14 R/B 3.5 01:45:43 10° N 01:49:37 73° E 01:53:31 10° SSE
Cosmos 1726 3.1 01:46:40 10° SSE 01:50:09 46° E 01:53:40 10° NNE
CZ-3B R/B 3.3 01:44:12 15° WSW 01:52:15 46° S 01:56:53 10° ESE
SL-24 R/B - RUBIN 2 4.2 01:51:32 10° NNW 01:56:16 62° ENE 02:00:34 10° SE
Cosmos 1300 Rocket 4.3 01:56:21 13° SW 01:59:38 34° W 02:03:35 10° NNW
Cosmos 1733 4.4 01:58:02 15° SW 02:00:16 24° W 02:03:27 10° NNW
Cosmos 1766 4.0 01:57:30 14° SW 02:00:24 33° W 02:03:57 10° NNW
Cosmos 1470 3.1 01:57:38 10° S 02:01:33 68° E 02:05:27 10° NNE
CZ-2C R/B 3.1 01:58:07 10° N 02:02:12 33° WNW 02:06:14 10° SW
Cosmos 1821 Rocket 4.0 01:59:48 10° SSW 02:05:53 60° W 02:11:55 10° N
Cosmos 1975 Rocket 4.2 02:05:58 10° NW 02:09:26 23° W 02:12:53 10° SW
Meteor 1-24 Rocket 4.1 02:05:57 10° N 02:11:53 74° E 02:17:34 10° SSE
METEOR-M 4.2 02:08:36 10° N 02:13:54 68° WNW 02:19:11 10° SSW
Meteor 2-5 Rocket 3.8 02:11:02 10° N 02:16:57 80° W 02:22:44 10° S
Cosmos 1184 Rocket 4.1 02:15:25 10° N 02:18:28 43° E 02:21:30 10° SSE
Cosmos 1484 Rocket 3.0 02:14:37 10° N 02:18:29 53° WNW 02:22:21 10° SSW
Okean 1 Rocket 3.1 02:15:48 10° S 02:20:10 87° W 02:24:37 10° N
Cosmos 540 Rocket 4.2 02:15:46 10° N 02:20:54 61° ENE 02:25:59 10° SSE
SeaSat 1 4.1 02:17:35 10° NE 02:22:01 33° ESE 02:26:24 10° S
Cosmos 1844 Rocket 3.3 02:17:43 10° SW 02:23:00 40° WNW 02:28:20 10° N
DNEPR-1 R/B 4.4 02:20:53 10° SW 02:26:37 52° WNW 02:31:23 10° NNE
CZ-3 R/B 3.2 02:19:19 10° WSW 02:42:50 55° S 02:49:19 10° E
